Flag for Portugal Weather past 2 weeks in Coimbra, Portugal

Now
66 °F

Passing clouds.


Feels Like: 66 °F
Forecast: 51 / 74 °F
Wind: 12 mph from Northwest

Location: Porto / Pedras Rubras

Current Time: Aug 4, 2015 at 7:12:27 PM

Latest Report: Aug 4, 2015 at 6:30 PM


Visibility: N/A

Pressure: 30.01 "Hg

Humidity: 68%

Dew point: 55 °F

Location of CoimbraLocation

Historic Weather in Coimbra — Graph

°F

Coimbra temperature yesterday

Maximum temperature yesterday: 77 °F (at 12:00 PM)
Minimum temperature yesterday: 54 °F (at 3:30 AM)
Average temperature yesterday: 65 °F

Past Weeks' High & Low Weather Summary

 TemperatureHumidityPressure
High77 °F (Aug 3, 12:00 PM)100% (Jul 20, 9:30 PM)30.12 "Hg (Jul 20, 9:30 PM)
Low52 °F (Jul 25, 6:30 AM)50% (Jul 25, 3:00 PM)29.80 "Hg (Jul 31, 3:00 AM)
Average66 °F85%30.02 "Hg
* Reported Jul 20 6:00 PM — Aug 4 6:00 PM, Coimbra, Weather by CustomWeather, © 2015

Note: Actual official high and low records may vary slightly from our data, if they occured in-between our weather recording intervals... More about our weather records

Advertising

Coimbra weather history for previous 24 hours

 ConditionsComfort  
Time TempWeatherWind HumidityBarometerVisibility
6:00 PM
Tue, Aug 4
68 °FSunny.12 mph64%30.01 "Hg10 mi
5:30 PM70 °FSunny.9 mph64%30.01 "Hg10 mi
5:00 PM72 °FPassing clouds.9 mph61%30.01 "HgN/A
4:30 PM70 °FPassing clouds.10 mph64%30.04 "HgN/A
4:00 PM70 °FPassing clouds.10 mph64%30.04 "HgN/A
3:30 PM70 °FPassing clouds.12 mph64%30.04 "HgN/A
3:00 PM72 °FSunny.12 mph61%30.07 "Hg10 mi
2:30 PM72 °FPassing clouds.13 mph61%30.07 "HgN/A
2:00 PM70 °FPassing clouds.13 mph60%30.07 "HgN/A
1:30 PM70 °FSunny.15 mph64%30.07 "Hg10 mi
1:00 PM70 °FSunny.12 mph60%30.07 "Hg10 mi
12:30 PM72 °FSunny.9 mph65%30.07 "Hg10 mi
12:00 PM70 °FPassing clouds.9 mph64%30.09 "HgN/A
11:30 AM70 °FPassing clouds.7 mph73%30.09 "HgN/A
11:00 AM70 °FPassing clouds.6 mph73%30.09 "HgN/A
10:30 AM68 °FPassing clouds.5 mph73%30.09 "HgN/A
10:00 AM68 °FPassing clouds.6 mph73%30.07 "HgN/A
9:30 AM64 °FSunny.6 mph83%30.07 "Hg10 mi
9:00 AM64 °FPassing clouds.5 mph83%30.07 "HgN/A
8:30 AM61 °FPassing clouds.3 mph88%30.07 "HgN/A
8:00 AM57 °FPassing clouds.3 mph94%30.07 "HgN/A
7:30 AM55 °FClear.2 mph100%30.07 "Hg10 mi
7:00 AM54 °FClear.2 mph100%30.07 "Hg10 mi
6:30 AM54 °FClear.No wind100%30.07 "Hg10 mi
6:00 AM55 °FClear.No wind100%30.07 "Hg10 mi
5:30 AM57 °FClear.No wind94%30.07 "Hg10 mi
5:00 AM57 °FClear.2 mph94%30.07 "Hg10 mi
4:30 AM57 °FClear.5 mph94%30.07 "Hg10 mi
4:00 AM57 °FClear.5 mph94%30.09 "Hg10 mi
3:30 AM57 °FClear.3 mph94%30.09 "Hg10 mi
3:00 AM59 °FClear.5 mph88%30.09 "Hg10 mi
2:30 AM59 °FPassing clouds.5 mph88%30.09 "HgN/A
2:00 AM59 °FClear.5 mph88%30.09 "Hg10 mi
1:30 AM61 °FClear.7 mph88%30.09 "Hg10 mi
1:00 AM59 °FClear.6 mph94%30.09 "Hg10 mi
12:30 AM61 °FClear.6 mph94%30.09 "Hg10 mi
12:00 AM63 °FClear.9 mph88%30.09 "Hg10 mi
11:30 PM
Mon, Aug 3
63 °FClear.9 mph88%30.09 "Hg10 mi
11:00 PM63 °FClear.7 mph94%30.09 "Hg10 mi
10:30 PM63 °FPassing clouds.7 mph94%30.09 "HgN/A
10:00 PM63 °FPassing clouds.6 mph94%30.07 "HgN/A
9:30 PM64 °FPassing clouds.5 mph94%30.07 "Hg6 mi
9:00 PM64 °FPassing clouds.5 mph94%30.07 "Hg6 mi
8:30 PM66 °FPassing clouds.6 mph94%30.07 "Hg5 mi
8:00 PM68 °FPassing clouds.7 mph88%30.04 "HgN/A
7:30 PM70 °FPassing clouds.9 mph83%30.04 "HgN/A
7:00 PM72 °FScattered clouds.14 mph78%30.04 "HgN/A
Weather by CustomWeather, © 2015

See weather overviewHow to use our weather pages